H1 CPF  2 ESA 2023  8  9 10 221 01 galileo213
H2  1606903 7213    41861 2023  8  8 23 59 42 2023  8 13 23 59 42   900 1 1  0 0 0  1
H9
10 0 60168  64782.000000  0      16601120.795      15358940.798      19104192.759
10 0 60168  65682.000000  0      16996217.788      16955454.932      17323419.889
10 0 60168  66582.000000  0      17450059.720      18358134.622      15327291.299
10 0 60168  67482.000000  0      17932336.320      19549821.065      13140613.550
10 0 60168  68382.000000  0      18410632.529      20519193.338      10790563.523
10 0 60168  69282.000000  0      18851479.764      21261068.690       8306351.435
10 0 60168  70182.000000  0      19221442.830      21776512.483       5718858.369
10 0 60168  71082.000000  0      19488208.369      22072754.341       3060252.804
10 0 60168  71982.000000  0      19621640.672      22162913.176        363590.867
10 0 60168  72882.000000  0      19594771.654      22065539.730      -2337594.681
10 0 60168  73782.000000  0      19384693.846      21803990.971      -5009711.603
10 0 60168  74682.000000  0      18973328.298      21405656.060      -7619526.267
10 0 60168  75582.000000  0      18348043.249      20901058.245     -10134577.399
10 0 60168  76482.000000  0      17502103.893      20322860.718     -12523580.258
10 0 60168  77382.000000  0      16434939.144      19704807.877     -14756816.212
10 0 60168  78282.000000  0      15152216.826      19080635.140     -16806502.785
10 0 60168  79182.000000  0      13665724.811      18482981.592     -18647139.547
10 0 60168  80082.000000  0      11993061.837      17942339.726     -20255825.569
10 0 60168  80982.000000  0      10157147.477      17486075.134     -21612544.470
10 0 60168  81882.000000  0       8185566.513      17137546.964     -22700413.516
10 0 60168  82782.000000  0       6109768.145      16915356.752     -23505893.722
10 0 60168  83682.000000  0       3964144.993      16832749.206     -24018958.360
10 0 60168  84582.000000  0       1785020.581      16897183.729     -24233217.828
10 0 60168  85482.000000  0       -390423.123      17110090.157     -24145999.326
10 0 60168  86382.000000  0      -2525244.677      17466816.381     -23758380.385
10 0 60169    882.000000  0      -4583834.405      17956769.520     -23075175.820
10 0 60169   1782.000000  0      -6532963.872      18563746.280     -22104878.252
10 0 60169   2682.000000  0      -8342760.874      19266442.158     -20859552.906
10 0 60169   3582.000000  0      -9987579.560      20039123.596     -19354687.951
10 0 60169   4482.000000  0     -11446738.522      20852442.021     -17609002.188
10 0 60169   5382.000000  0     -12705103.866      21674364.299     -15644212.424
10 0 60169   6282.000000  0     -13753499.061      22471190.406     -13484763.376
10 0 60169   7182.000000  0     -14588928.837      23208626.414     -11157523.436
10 0 60169   8082.000000  0     -15214610.182      23852879.077      -8691450.050
10 0 60169   8982.000000  0     -15639809.560      24371737.645      -6117228.893
10 0 60169   9882.000000  0     -15879491.567      24735608.888      -3466891.348
10 0 60169  10782.000000  0     -15953790.141      24918472.773       -773415.102
10 0 60169  11682.000000  0     -15887319.054      24898728.730       1929687.098
10 0 60169  12582.000000  0     -15708343.453      24659905.871       4608785.332
10 0 60169  13482.000000  0     -15447838.592      24191214.812       7230551.749
10 0 60169  14382.000000  0     -15138465.436      23487923.746       9762375.846
10 0 60169  15282.000000  0     -14813495.416      22551546.924      12172770.563
10 0 60169  16182.000000  0     -14505718.206      21389839.634      14431764.073
10 0 60169  17082.000000  0     -14246366.881      20016599.831      16511272.358
10 0 60169  17982.000000  0     -14064094.245      18451282.646      18385447.950
10 0 60169  18882.000000  0     -13984032.483      16718439.852      20031000.526
10 0 60169  19782.000000  0     -14026965.630      14847001.850      21427485.423
10 0 60169  20682.000000  0     -14208640.802      12869424.626      22557556.577
10 0 60169  21582.000000  0     -14539239.744      10820728.329      23407180.838
10 0 60169  22482.000000  0     -15023027.228       8737457.475      23965811.100
10 0 60169  23382.000000  0     -15658187.292       6656595.198      24226516.218
10 0 60169  24282.000000  0     -16436852.434       4614465.351      24186066.164
10 0 60169  25182.000000  0     -17345324.852       2645656.635      23844971.463
10 0 60169  26082.000000  0     -18364482.849        782002.215      23207476.462
10 0 60169  26982.000000  0     -19470359.715       -948353.466      22281506.531
10 0 60169  27882.000000  0     -20634877.069      -2521771.676      21078569.841
10 0 60169  28782.000000  0     -21826709.777      -3919794.799      19613614.909
10 0 60169  29682.000000  0     -23012255.483      -5129659.201      17904845.609
10 0 60169  30582.000000  0     -24156678.498      -6144629.623      15973495.868
10 0 60169  31482.000000  0     -25224995.447      -6964144.756      13843566.753
10 0 60169  32382.000000  0     -26183168.743      -7593769.519      11541529.130
10 0 60169  33282.000000  0     -26999173.686      -8044955.599       9095995.509
10 0 60169  34182.000000  0     -27644005.760      -8334617.808       6537365.074
10 0 60169  35082.000000  0     -28092596.569      -8484539.582       3897446.276
10 0 60169  35982.000000  0     -28324609.640      -8520626.308       1209061.651
10 0 60169  36882.000000  0     -28325091.118      -8472029.938      -1494360.225
10 0 60169  37782.000000  0     -28084954.848      -8370172.416      -4179200.537
10 0 60169  38682.000000  0     -27601286.531      -8247698.623      -6812068.583
10 0 60169  39582.000000  0     -26877457.528      -8137391.833      -9360217.451
10 0 60169  40482.000000  0     -25923044.380      -8071085.700     -11791951.744
10 0 60169  41382.000000  0     -24753556.665      -8078607.082     -14077022.244
10 0 60169  42282.000000  0     -23389981.664      -8186782.977     -16187002.579
10 0 60169  43182.000000  0     -21858159.872      -8418542.809     -18095643.119
10 0 60169  44082.000000  0     -20188011.170      -8792144.369     -19779197.763
10 0 60169  44982.000000  0     -18412635.664      -9320547.758     -21216719.493
10 0 60169  45882.000000  0     -16567317.319     -10010957.060     -22390321.055
10 0 60169  46782.000000  0     -14688461.565     -10864544.216     -23285397.532
10 0 60169  47682.000000  0     -12812500.040     -11876363.858     -23890808.100
10 0 60169  48582.000000  0     -10974796.704     -13035461.871     -24199014.712
10 0 60169  49482.000000  0      -9208589.452     -14325174.390     -24206176.041
10 0 60169  50382.000000  0      -7544000.277     -15723607.972     -23912195.509
10 0 60169  51282.000000  0      -6007144.848     -17204286.030     -23320722.822
10 0 60169  52182.000000  0      -4619369.280     -18736941.381     -22439108.976
10 0 60169  53082.000000  0      -3396637.882     -20288430.207     -21278315.261
10 0 60169  53982.000000  0      -2349090.958     -21823738.898     -19852777.360
10 0 60169  54882.000000  0      -1480786.415     -23307052.322     -18180226.174
10 0 60169  55782.000000  0       -789633.179     -24702850.134     -16281467.552
10 0 60169  56682.000000  0       -267518.427     -25976996.807     -14180123.604
10 0 60169  57582.000000  0         99375.454     -27097791.255     -11902338.798
10 0 60169  58482.000000  0        330074.210     -28036943.160      -9476454.434
10 0 60169  59382.000000  0        448151.044     -28770445.366      -6932655.575
10 0 60169  60282.000000  0        480922.765     -29279314.993      -4302594.832
10 0 60169  61182.000000  0        458528.114     -29550179.978      -1618997.717
10 0 60169  62082.000000  0        412917.325     -29575692.656       1084745.434
10 0 60169  62982.000000  0        376784.784     -29354757.382       3774995.844
10 0 60169  63882.000000  0        382478.438     -28892565.085       6418285.685
10 0 60169  64782.000000  0        460920.317     -28200433.693       8981735.191
10 0 60169  65682.000000  0        640572.190     -27295459.476      11433462.198
10 0 60169  66582.000000  0        946478.929     -26199990.315      13742978.981
10 0 60169  67482.000000  0       1399419.676     -24940937.469      15881571.383
10 0 60169  68382.000000  0       2015193.530     -23548947.476      17822655.529
10 0 60169  69282.000000  0       2804062.182     -22057460.188      19542107.696
10 0 60169  70182.000000  0       3770367.028     -20501682.490      21018563.289
10 0 60169  71082.000000  0       4912332.773     -18917509.816      22233681.285
10 0 60169  71982.000000  0       6222063.701     -17340429.232      23172370.945
10 0 60169  72882.000000  0       7685732.775     -15804438.311      23822978.087
10 0 60169  73782.000000  0       9283957.682     -14341013.570      24177428.714
10 0 60169  74682.000000  0      10992352.137     -12978160.591      24231328.307
10 0 60169  75582.000000  0      12782235.279     -11739575.408      23984015.635
10 0 60169  76482.000000  0      14621477.093     -10643943.243      23438570.475
10 0 60169  77382.000000  0      16475453.543      -9704396.374      22601775.172
10 0 60169  78282.000000  0      18308081.712      -8928147.954      21484030.516
10 0 60169  79182.000000  0      20082902.702      -8316313.127      20099226.962
10 0 60169  80082.000000  0      21764178.601      -7863922.927      18464572.713
10 0 60169  80982.000000  0      23317969.323      -7560130.463      16600380.754
10 0 60169  81882.000000  0      24713155.751      -7388602.871      14529817.370
10 0 60169  82782.000000  0      25922377.262      -7328086.722      12278615.198
10 0 60169  83682.000000  0      26922854.349      -7353129.145       9874754.279
10 0 60169  84582.000000  0      27697070.609      -7434932.037       7348115.014
10 0 60169  85482.000000  0      28233292.764      -7542312.557       4730107.276
99